Location: Zürich
(47.3769°N, 8.5417°E)
Time: 10:23:12
(UTC+02:00)

ISS - Pass Details

Date: 18 May 2021
Orbit: 417 x 422 km, 51.6° (Epoch: 13 June)

Event Time Altitude Azimuth Distance (km) Brightness Sun altitude
Rises 01:16:39 0° 289° (WNW) 2,369 0.3 -23.1°
Reaches altitude 10° 01:18:48 10° 296° (WNW) 1,504 -0.6 -23.1°
Maximum altitude 01:22:03 43° 10° (N) 600 -2.6 -23.1°
Enters shadow 01:22:48 37° 48° (NE) 679 -2.4 -23.1°
